Weather History for Three Rivers, MI

Change the Weather History Date:

Tuesday, January 29, 2008

  Actual Average Record
Temperature  
Mean Temperature 44 °F -  
Max Temperature 46 °F 32 °F 57 °F (2013)
Min Temperature 41 °F 15 °F -10 °F (1977)
Degree Days  
Heating Degree Days 22    
Moisture  
Dew Point 38 °F    
Average Humidity 83    
Maximum Humidity 100    
Minimum Humidity 57    
Precipitation  
Precipitation 0.00 in - - ()
Sea Level Pressure  
Sea Level Pressure 29.35 in    
Wind  
Wind Speed 13 mph (SSW)    
Max Wind Speed 20 mph    
Max Gust Speed 24 mph    
Visibility 7 miles    
Events Rain    
Averages and records for this station are not official NWS values.
T = Trace of Precipitation, MM = Missing Value Source: NWS Daily Summary

Daily Weather History Graph

Daily Weather History Graph

Search for Another Location

Airport:

Trip Planner

Search our weather history database for the weather conditions in past years. The results will help you decide how hot, cold, wet, or windy it might be!

Date:

Astronomy

Jan. 29, 2008 Rise Set
Actual Time 7:58 AM EST 5:52 PM EST
Civil Twilight 7:28 AM EST 6:22 PM EST
Nautical Twilight 6:55 AM EST 6:56 PM EST
Astronomical Twilight 6:22 AM EST 7:29 PM EST
Moon 12:44 AM EST (1/29) 11:01 AM EST (1/29)
Length of Visible Light 10h 54m
Length of Day
9h 54m
Waning Gibbous, 55% of the Moon is Illuminated
Jan 29
Waning Gibbous
Jan 30
Last Quarter
Feb 6
New
Feb 13
First Quarter
Feb 20
Full

Hourly Weather History & Observations

Time (EST) Temp. Windchill Dew Point Humidity Pressure Visibility Wind Dir Wind Speed Gust Speed Precip Events Conditions
12:15 AM 41.0 °F 33.1 °F 28.4 °F 61% 29.50 in 10.0 mi SSW 15.0 mph 20.7 mph N/A   Scattered Clouds
12:35 AM 41.0 °F 33.1 °F 26.6 °F 57% 29.49 in 10.0 mi SSW 15.0 mph 23.0 mph N/A   Scattered Clouds
12:55 AM 41.0 °F 33.9 °F 28.4 °F 61% 29.48 in 10.0 mi SSW 12.7 mph - N/A   Clear
1:17 AM 41.0 °F 33.1 °F 28.4 °F 61% 29.48 in 10.0 mi SSW 15.0 mph 20.7 mph N/A   Scattered Clouds
1:35 AM 41.0 °F 33.1 °F 28.4 °F 61% 29.47 in 10.0 mi SSW 15.0 mph 21.9 mph N/A   Overcast
1:55 AM 41.0 °F 33.5 °F 28.4 °F 61% 29.46 in 10.0 mi SSW 13.8 mph 20.7 mph N/A   Scattered Clouds
2:15 AM 41.0 °F 33.1 °F 30.2 °F 65% 29.46 in 10.0 mi SSW 15.0 mph 19.6 mph N/A   Mostly Cloudy
2:35 AM 41.0 °F 32.8 °F 30.2 °F 65% 29.45 in 10.0 mi South 16.1 mph - N/A   Scattered Clouds
2:55 AM 41.0 °F 32.2 °F 30.2 °F 65% 29.44 in 10.0 mi SSW 18.4 mph 23.0 mph N/A   Clear
3:15 AM 41.0 °F 31.9 °F 32.0 °F 70% 29.42 in 10.0 mi SSW 19.6 mph 24.2 mph N/A   Clear
3:35 AM 41.0 °F 32.8 °F 32.0 °F 70% 29.45 in 10.0 mi SSW 16.1 mph 24.2 mph N/A   Clear
3:55 AM 41.0 °F 33.9 °F 32.0 °F 70% 29.45 in 10.0 mi SW 12.7 mph 18.4 mph N/A   Scattered Clouds
4:15 AM 41.0 °F 34.7 °F 32.0 °F 70% 29.46 in 10.0 mi SW 10.4 mph - N/A   Scattered Clouds
4:35 AM 41.0 °F 34.3 °F 32.0 °F 70% 29.46 in 10.0 mi SSW 11.5 mph 17.3 mph N/A   Scattered Clouds
4:55 AM 41.0 °F 34.7 °F 32.0 °F 70% 29.46 in 10.0 mi SSW 10.4 mph 17.3 mph N/A   Clear
5:15 AM 41.0 °F 34.3 °F 32.0 °F 70% 29.46 in 10.0 mi SSW 11.5 mph 16.1 mph N/A   Scattered Clouds
5:35 AM 41.0 °F 34.7 °F 33.8 °F 76% 29.45 in 10.0 mi SSW 10.4 mph - N/A   Overcast
5:55 AM 41.0 °F 34.7 °F 33.8 °F 76% 29.46 in 10.0 mi SSW 10.4 mph - N/A   Overcast
6:15 AM 41.0 °F 34.3 °F 33.8 °F 76% 29.46 in 10.0 mi SSW 11.5 mph - N/A   Overcast
6:35 AM 42.8 °F 36.2 °F 35.6 °F 76% 29.47 in 10.0 mi SSW 12.7 mph - N/A   Overcast
6:55 AM 42.8 °F 36.2 °F 35.6 °F 76% 29.46 in 10.0 mi SSW 12.7 mph - N/A   Overcast
7:15 AM 42.8 °F 37.0 °F 35.6 °F 76% 29.47 in 10.0 mi South 10.4 mph - N/A   Overcast
7:35 AM 41.0 °F 34.3 °F 35.6 °F 81% 29.46 in 10.0 mi SSW 11.5 mph - N/A   Overcast
7:55 AM 41.0 °F 33.9 °F 35.6 °F 81% 29.46 in 10.0 mi SSW 12.7 mph - N/A   Overcast
8:17 AM 41.0 °F 33.9 °F 35.6 °F 81% 29.45 in 10.0 mi SSW 12.7 mph - N/A   Overcast
8:35 AM 42.8 °F 35.8 °F 37.4 °F 81% 29.45 in 10.0 mi SSW 13.8 mph - N/A   Overcast
8:55 AM 42.8 °F 35.8 °F 37.4 °F 81% 29.44 in 7.0 mi SSW 13.8 mph - N/A   Overcast
9:15 AM 42.8 °F 36.2 °F 37.4 °F 81% 29.44 in 7.0 mi SSW 12.7 mph - N/A   Overcast
9:35 AM 42.8 °F 36.6 °F 37.4 °F 81% 29.43 in 7.0 mi South 11.5 mph - N/A   Overcast
9:55 AM 42.8 °F 36.6 °F 39.2 °F 87% 29.42 in 7.0 mi South 11.5 mph - N/A   Overcast
10:17 AM 42.8 °F 37.5 °F 39.2 °F 87% 29.42 in 7.0 mi SSW 9.2 mph - N/A   Overcast
10:35 AM 42.8 °F 37.0 °F 39.2 °F 87% 29.41 in 7.0 mi South 10.4 mph - N/A   Overcast
10:55 AM 42.8 °F 36.6 °F 39.2 °F 87% 29.41 in 7.0 mi South 11.5 mph - N/A   Overcast
11:17 AM 44.6 °F 38.8 °F 41.0 °F 87% 29.39 in 7.0 mi South 11.5 mph - N/A   Overcast
11:37 AM 44.6 °F 39.2 °F 41.0 °F 87% 29.39 in 7.0 mi SSW 10.4 mph - N/A   Overcast
11:55 AM 44.6 °F 38.8 °F 41.0 °F 87% 29.37 in 7.0 mi South 11.5 mph - N/A   Overcast
12:15 PM 44.6 °F 39.7 °F 41.0 °F 87% 29.36 in 7.0 mi SSW 9.2 mph - N/A   Overcast
12:35 PM 44.6 °F 39.7 °F 41.0 °F 87% 29.35 in 7.0 mi South 9.2 mph - N/A   Overcast
12:55 PM 42.8 °F 35.8 °F 41.0 °F 93% 29.32 in 7.0 mi South 13.8 mph - N/A   Overcast
1:15 PM 42.8 °F 36.2 °F 41.0 °F 93% 29.31 in 5.0 mi South 12.7 mph - N/A   Overcast
1:35 PM 42.8 °F 36.6 °F 41.0 °F 93% 29.29 in 3.0 mi South 11.5 mph - N/A   Drizzle
1:55 PM 42.8 °F 37.0 °F 41.0 °F 93% 29.27 in 2.5 mi South 10.4 mph 16.1 mph N/A Rain Light Rain
2:15 PM 42.8 °F 36.2 °F 41.0 °F 93% 29.25 in 2.5 mi South 12.7 mph 16.1 mph N/A   Overcast
2:35 PM 42.8 °F 36.6 °F 42.8 °F 100% 29.23 in 2.0 mi South 11.5 mph - N/A Rain Light Rain
2:55 PM 42.8 °F 37.5 °F 42.8 °F 100% 29.22 in 2.0 mi South 9.2 mph - N/A Rain Light Rain
3:15 PM 42.8 °F 37.0 °F 42.8 °F 100% 29.21 in 2.0 mi South 10.4 mph - N/A   Overcast
3:35 PM 42.8 °F 36.6 °F 42.8 °F 100% 29.19 in 1.5 mi South 11.5 mph - N/A   Drizzle
3:55 PM 42.8 °F 37.0 °F 42.8 °F 100% 29.18 in 1.0 mi South 10.4 mph - N/A   Overcast
4:15 PM 44.6 °F 38.8 °F 42.8 °F 93% 29.17 in 1.0 mi South 11.5 mph - N/A   Overcast
4:35 PM 44.6 °F 38.4 °F 44.6 °F 100% 29.15 in 1.0 mi South 12.7 mph - N/A   Light Drizzle
4:55 PM 44.6 °F 39.2 °F 44.6 °F 100% 29.15 in 1.0 mi South 10.4 mph 18.4 mph N/A   Overcast
5:15 PM 44.6 °F 38.8 °F 44.6 °F 100% 29.13 in 1.2 mi South 11.5 mph 17.3 mph N/A   Overcast
5:35 PM 44.6 °F 37.8 °F 44.6 °F 100% 29.13 in 2.0 mi South 15.0 mph 18.4 mph N/A   Overcast
5:55 PM 46.4 °F 40.7 °F 46.4 °F 100% 29.10 in 2.5 mi South 12.7 mph - N/A   Overcast
6:15 PM 46.4 °F 40.1 °F 46.4 °F 100% 29.09 in 2.5 mi South 15.0 mph 18.4 mph N/A Rain Light Rain
6:35 PM 46.4 °F 41.1 °F 46.4 °F 100% 29.07 in 2.5 mi South 11.5 mph - N/A Rain Rain
6:55 PM 46.4 °F 43.5 °F 46.4 °F 100% 29.06 in 1.8 mi SW 5.8 mph - N/A Rain Heavy Rain
7:15 PM 46.4 °F 44.3 °F 46.4 °F 100% 29.05 in 1.5 mi West 4.6 mph - N/A Rain Rain
7:35 PM 48.2 °F - 48.2 °F 100% 29.04 in 2.5 mi SW 16.1 mph 20.7 mph N/A Rain Heavy Rain
7:55 PM 46.4 °F 40.1 °F 46.4 °F 100% 29.00 in 5.0 mi South 15.0 mph 18.4 mph N/A Rain Rain
8:15 PM 46.4 °F 41.5 °F 44.6 °F 93% 29.01 in 7.0 mi SSW 10.4 mph - N/A Rain Rain
8:35 PM 46.4 °F 41.5 °F 44.6 °F 93% 29.00 in 7.0 mi WSW 10.4 mph 16.1 mph N/A Rain Light Rain
8:55 PM 42.8 °F 34.0 °F 39.2 °F 87% 29.04 in 10.0 mi West 20.7 mph 27.6 mph N/A Rain Light Rain
9:15 PM 37.4 °F 25.9 °F 35.6 °F 93% 29.05 in 7.0 mi West 25.3 mph 29.9 mph N/A Rain Light Rain
9:35 PM 33.8 °F 20.5 °F 32.0 °F 93% 29.07 in 2.5 mi West 27.6 mph 32.2 mph N/A Snow Light Snow
10:35 PM 32.0 °F 18.4 °F 30.2 °F 93% 29.13 in 2.5 mi West 26.5 mph 32.2 mph N/A Snow Light Snow
10:55 PM 30.2 °F 16.2 °F 26.6 °F 86% 29.14 in 4.0 mi West 25.3 mph 39.1 mph N/A Snow Light Snow
11:15 PM 26.6 °F 9.1 °F 23.0 °F 86% 29.18 in 3.0 mi West 35.7 mph 44.9 mph N/A Snow Light Snow
11:35 PM 23.0 °F 5.7 °F 19.4 °F 86% 29.22 in 1.2 mi WSW 28.8 mph 40.3 mph N/A Snow Light Snow
11:55 PM 19.4 °F 2.5 °F 15.8 °F 86% 29.26 in 1.8 mi West 23.0 mph 39.1 mph N/A Snow Light Snow